• en France
  • Liste des pays
  • À 7 jours
  • Température de l'eau
  • Carte satellitaire
  • Carte météo
  • Widgets météo
  • user-avatar
    Se connecter

    Météo par heure à Tunja

    Ce jour, 16 Octobre, Mardi

    Heure Température Précipitation Vent Pression Humidité
    00:00 +11°C° 0.3 mm 1 m/s 549 mmHg 96%
    01:00 +11°C° 0.3 mm 1 m/s 549 mmHg 95%
    02:00 +11°C° 0.3 mm 1 m/s 549 mmHg 95%
    03:00 +11°C° 0.3 mm 1 m/s 548 mmHg 95%
    04:00 +9°C° 0.3 mm 0 m/s 548 mmHg 94%
    05:00 +10°C° 0.2 mm 0 m/s 549 mmHg 93%
    06:00 +11°C° 0.2 mm 0 m/s 549 mmHg 91%
    07:00 +11°C° 0.2 mm 0 m/s 550 mmHg 89%
    08:00 +14°C° 0.1 mm 1 m/s 551 mmHg 82%
    09:00 +15°C° 0.1 mm 1 m/s 552 mmHg 75%
    10:00 +18°C° 0.1 mm 1 m/s 553 mmHg 69%
    11:00 +17°C° 0.5 mm 2 m/s 553 mmHg 70%
    12:00 +17°C° 0.5 mm 2 m/s 552 mmHg 72%
    13:00 +17°C° 0.5 mm 2 m/s 551 mmHg 73%
    14:00 +17°C° 0.8 mm 2 m/s 550 mmHg 76%
    15:00 +16°C° 0.8 mm 2 m/s 550 mmHg 79%
    16:00 +16°C° 0.8 mm 2 m/s 549 mmHg 82%
    17:00 +14°C° 0.4 mm 1 m/s 549 mmHg 86%
    18:00 +13°C° 0.4 mm 1 m/s 548 mmHg 91%
    19:00 +12°C° 0.4 mm 1 m/s 548 mmHg 96%
    20:00 +12°C° 0 mm 1 m/s 548 mmHg 96%
    21:00 +11°C° 0 mm 1 m/s 549 mmHg 96%
    22:00 +11°C° 0 mm 1 m/s 549 mmHg 96%
    23:00 +11°C° 0 mm 1 m/s 549 mmHg 95%

    Demain, 17 Octobre, Mercredi

    Heure Température Précipitation Vent Pression Humidité
    00:00 +11°C° 0 mm 1 m/s 548 mmHg 94%
    01:00 +10°C° 0 mm 1 m/s 548 mmHg 93%
    02:00 +10°C° 0 mm 1 m/s 548 mmHg 93%
    03:00 +10°C° 0 mm 1 m/s 547 mmHg 92%
    04:00 +10°C° 0 mm 1 m/s 547 mmHg 91%
    05:00 +10°C° 0 mm 1 m/s 548 mmHg 88%
    06:00 +10°C° 0 mm 0 m/s 549 mmHg 86%
    07:00 +11°C° 0 mm 0 m/s 549 mmHg 83%
    08:00 +14°C° 0 mm 1 m/s 551 mmHg 73%
    09:00 +18°C° 0 mm 1 m/s 552 mmHg 63%
    10:00 +20°C° 0 mm 1 m/s 554 mmHg 53%
    11:00 +19°C° 0.1 mm 2 m/s 553 mmHg 54%
    12:00 +19°C° 0.1 mm 2 m/s 552 mmHg 55%
    13:00 +20°C° 0.1 mm 2 m/s 552 mmHg 56%
    14:00 +19°C° 0.6 mm 2 m/s 551 mmHg 63%
    15:00 +18°C° 0.6 mm 2 m/s 550 mmHg 69%
    16:00 +18°C° 0.6 mm 1 m/s 549 mmHg 76%
    17:00 +15°C° 0.5 mm 1 m/s 549 mmHg 82%
    18:00 +13°C° 0.5 mm 1 m/s 548 mmHg 89%
    19:00 +11°C° 0.5 mm 0 m/s 548 mmHg 96%
    20:00 +11°C° 0.1 mm 0 m/s 548 mmHg 96%
    21:00 +10°C° 0.1 mm 0 m/s 548 mmHg 96%
    22:00 +11°C° 0.1 mm 1 m/s 549 mmHg 96%
    23:00 +11°C° 0 mm 1 m/s 548 mmHg 95%

    Après-demain, 18 Octobre, Jeudi

    Heure Température Précipitation Vent Pression Humidité
    00:00 +11°C° 0 mm 1 m/s 548 mmHg 95%
    01:00 +10°C° 0 mm 1 m/s 547 mmHg 94%
    02:00 +10°C° 0 mm 1 m/s 547 mmHg 94%
    03:00 +10°C° 0 mm 1 m/s 547 mmHg 93%
    04:00 +10°C° 0 mm 1 m/s 547 mmHg 93%
    05:00 +11°C° 0 mm 1 m/s 548 mmHg 91%
    06:00 +11°C° 0 mm 1 m/s 548 mmHg 88%
    07:00 +11°C° 0 mm 0 m/s 549 mmHg 85%
    08:00 +14°C° 0 mm 1 m/s 550 mmHg 77%
    09:00 +16°C° 0 mm 1 m/s 552 mmHg 69%
    10:00 +18°C° 0 mm 2 m/s 553 mmHg 61%
    11:00 +18°C° 0.2 mm 2 m/s 552 mmHg 63%
    12:00 +18°C° 0.2 mm 2 m/s 551 mmHg 64%
    13:00 +19°C° 0.2 mm 1 m/s 550 mmHg 65%
    14:00 +18°C° 1 mm 1 m/s 550 mmHg 72%
    15:00 +16°C° 1 mm 1 m/s 549 mmHg 79%
    16:00 +15°C° 1 mm 1 m/s 548 mmHg 86%
    17:00 +14°C° 1.9 mm 1 m/s 548 mmHg 89%
    18:00 +13°C° 1.9 mm 1 m/s 548 mmHg 93%
    19:00 +11°C° 1.9 mm 0 m/s 548 mmHg 96%
    20:00 +11°C° 2.1 mm 0 m/s 548 mmHg 96%
    21:00 +11°C° 2.1 mm 0 m/s 549 mmHg 96%
    22:00 +11°C° 2.1 mm 0 m/s 549 mmHg 96%
    23:00 +11°C° 0.9 mm 0 m/s 549 mmHg 96%

    19 Octobre, Vendredi

    Heure Température Précipitation Vent Pression Humidité
    00:00 +11°C° 0.9 mm 1 m/s 549 mmHg 95%
    01:00 +11°C° 0.9 mm 1 m/s 548 mmHg 95%
    02:00 +11°C° 0.6 mm 1 m/s 548 mmHg 95%
    03:00 +11°C° 0.6 mm 1 m/s 548 mmHg 95%
    04:00 +11°C° 0.6 mm 1 m/s 548 mmHg 94%
    05:00 +10°C° 0.2 mm 0 m/s 548 mmHg 93%
    06:00 +11°C° 0.2 mm 0 m/s 549 mmHg 91%
    07:00 +11°C° 0.2 mm 0 m/s 549 mmHg 90%
    08:00 +13°C° 0.2 mm 1 m/s 550 mmHg 84%
    09:00 +15°C° 0.2 mm 1 m/s 551 mmHg 78%
    10:00 +16°C° 0.2 mm 1 m/s 552 mmHg 72%
    11:00 +16°C° 1.1 mm 1 m/s 552 mmHg 74%
    12:00 +16°C° 1.1 mm 1 m/s 551 mmHg 76%
    13:00 +16°C° 1.1 mm 1 m/s 550 mmHg 78%
    14:00 +15°C° 2.7 mm 1 m/s 549 mmHg 83%
    15:00 +13°C° 2.7 mm 0 m/s 549 mmHg 88%
    16:00 +12°C° 2.7 mm 0 m/s 548 mmHg 93%
    17:00 +12°C° 3.7 mm 0 m/s 548 mmHg 94%
    18:00 +11°C° 3.7 mm 0 m/s 548 mmHg 95%
    19:00 +11°C° 3.7 mm 0 m/s 549 mmHg 96%
    20:00 +12°C° 2.5 mm 1 m/s 549 mmHg 96%
    21:00 +11°C° 2.5 mm 1 m/s 549 mmHg 96%
    22:00 +11°C° 2.5 mm 1 m/s 549 mmHg 95%
    23:00 +11°C° 1.1 mm 1 m/s 548 mmHg 95%

    20 Octobre, Samedi

    Heure Température Précipitation Vent Pression Humidité
    00:00 +11°C° 1.1 mm 1 m/s 548 mmHg 95%
    01:00 +10°C° 1.1 mm 1 m/s 547 mmHg 95%
    02:00 +10°C° 0.5 mm 1 m/s 547 mmHg 95%
    03:00 +10°C° 0.5 mm 1 m/s 547 mmHg 95%
    04:00 +10°C° 0.5 mm 1 m/s 547 mmHg 95%
    05:00 +11°C° 0.6 mm 1 m/s 548 mmHg 94%
    06:00 +10°C° 0.6 mm 0 m/s 549 mmHg 93%
    07:00 +10°C° 0.6 mm 0 m/s 549 mmHg 91%
    08:00 +11°C° 0.8 mm 0 m/s 550 mmHg 88%
    09:00 +14°C° 0.8 mm 1 m/s 551 mmHg 84%
    10:00 +15°C° 0.8 mm 1 m/s 551 mmHg 81%
    11:00 +14°C° 1.3 mm 1 m/s 551 mmHg 83%
    12:00 +14°C° 1.3 mm 1 m/s 550 mmHg 85%
    13:00 +13°C° 1.3 mm 0 m/s 549 mmHg 87%
    14:00 +14°C° 1.1 mm 1 m/s 549 mmHg 88%
    15:00 +14°C° 1.1 mm 1 m/s 548 mmHg 89%
    16:00 +13°C° 1.1 mm 1 m/s 548 mmHg 90%
    17:00 +13°C° 0.6 mm 1 m/s 548 mmHg 91%
    18:00 +12°C° 0.6 mm 1 m/s 548 mmHg 93%
    19:00 +11°C° 0.6 mm 1 m/s 548 mmHg 95%
    20:00 +11°C° 0.8 mm 1 m/s 548 mmHg 94%
    21:00 +11°C° 0.8 mm 1 m/s 548 mmHg 94%
    22:00 +10°C° 0.8 mm 1 m/s 548 mmHg 94%
    23:00 +10°C° 0.3 mm 1 m/s 548 mmHg 94%

    21 Octobre, Dimanche

    Heure Température Précipitation Vent Pression Humidité
    00:00 +10°C° 0.3 mm 1 m/s 547 mmHg 93%
    01:00 +10°C° 0.3 mm 1 m/s 547 mmHg 93%
    02:00 +9°C° 0.1 mm 1 m/s 547 mmHg 93%
    03:00 +9°C° 0.1 mm 1 m/s 546 mmHg 92%
    04:00 +9°C° 0.1 mm 1 m/s 546 mmHg 92%
    05:00 +10°C° 0 mm 1 m/s 547 mmHg 91%
    06:00 +11°C° 0 mm 1 m/s 548 mmHg 89%
    07:00 +12°C° 0 mm 1 m/s 549 mmHg 87%
    08:00 +14°C° 0 mm 1 m/s 550 mmHg 79%
    09:00 +16°C° 0 mm 1 m/s 551 mmHg 71%
    10:00 +19°C° 0 mm 1 m/s 552 mmHg 62%
    11:00 +19°C° 0.5 mm 1 m/s 552 mmHg 65%
    12:00 +18°C° 0.5 mm 2 m/s 551 mmHg 68%
    13:00 +17°C° 0.5 mm 2 m/s 550 mmHg 71%
    14:00 +17°C° 1.1 mm 2 m/s 549 mmHg 76%
    15:00 +16°C° 1.1 mm 2 m/s 549 mmHg 80%
    16:00 +16°C° 1.1 mm 1 m/s 548 mmHg 84%
    17:00 +14°C° 0.8 mm 1 m/s 548 mmHg 88%
    18:00 +13°C° 0.8 mm 1 m/s 548 mmHg 93%
    19:00 +12°C° 0.8 mm 1 m/s 548 mmHg 97%
    20:00 +11°C° 0.3 mm 1 m/s 548 mmHg 97%
    21:00 +11°C° 0.3 mm 1 m/s 548 mmHg 96%
    22:00 +11°C° 0.3 mm 1 m/s 548 mmHg 96%
    23:00 +11°C° 0.1 mm 1 m/s 548 mmHg 96%
    Voir plus